{"data":{"norad_id":54084,"intl_designator":"2022-136AK","name":"STARLINK-5183","alt_names":[],"object_type":"PAYLOAD","status":"ACTIVE","operator":null,"country":"US","launch_date":"2022-10-20","launch_site_code":"AFETR","launch_vehicle":null,"mission":null,"orbit_class":"UNKNOWN","rcs_meters":null,"size_class":null,"mass_kg":null,"dimensions":null,"purposes":["comms"],"wikipedia_slug":null,"has_3d_model":false,"image_url":null,"decayed_at":null,"tle_current":{"epoch":"2026-09-20T22:00:03.000096Z","epoch_age_seconds":53276,"freshness":"FRESH","line1":"1 54084U 22136AK  26263.91670139  .00011579  00000+0  47296-3 0  9993","line2":"2 54084  53.1592 176.0084 0001277 102.0401 185.4030 15.24841166  5801","mean_motion":15.24841166,"eccentricity":0.0001277,"inclination_deg":53.1592,"raan_deg":176.0084,"arg_perigee_deg":102.0401,"mean_anomaly_deg":185.403,"bstar":0.00047296,"rev_number":580,"period_min":94.436065349511,"perigee_km":490.38520079869,"apogee_km":492.13964541135,"semimajor_km":6869.399423105,"source":"CELESTRAK","updated_at":"2026-09-21T09:00:33.081719Z"}}}